Year,Month,Day,Hour,Minute,Value (Times are PST for temperature in C)
2021,07,30,07,11,19.00
2021,07,30,07,12,19.00
2021,07,30,07,13,19.10
2021,07,30,07,14,19.30
2021,07,30,07,15,19.40
2021,07,30,07,16,19.50
2021,07,30,07,17,19.60
2021,07,30,07,18,19.60
2021,07,30,07,19,19.70
2021,07,30,07,20,19.80
2021,07,30,07,21,19.80
2021,07,30,07,22,19.90
2021,07,30,07,23,20.00
2021,07,30,07,24,20.00
2021,07,30,07,25,20.10
2021,07,30,07,26,20.10
2021,07,30,07,27,20.20
2021,07,30,07,28,20.30
2021,07,30,07,29,20.30
2021,07,30,07,30,20.40
2021,07,30,07,31,20.50
2021,07,30,07,32,20.60
2021,07,30,07,33,20.70
2021,07,30,07,34,20.80
2021,07,30,07,35,20.90
2021,07,30,07,36,21.00
2021,07,30,07,37,21.20
2021,07,30,07,38,21.30
2021,07,30,07,39,21.30
2021,07,30,07,40,21.40
2021,07,30,07,41,21.50
2021,07,30,07,42,21.60
2021,07,30,07,43,21.70
2021,07,30,07,44,21.80
2021,07,30,07,45,21.90
2021,07,30,07,46,21.90
2021,07,30,07,47,22.00
2021,07,30,07,48,22.10
2021,07,30,07,49,22.10
2021,07,30,07,50,22.20
2021,07,30,07,51,22.30
2021,07,30,07,52,22.30
2021,07,30,07,53,22.30
2021,07,30,07,54,22.40
2021,07,30,07,55,22.40
2021,07,30,07,56,22.50
2021,07,30,07,57,22.60
2021,07,30,07,58,22.60
2021,07,30,07,59,22.60
2021,07,30,08,00,22.70
2021,07,30,08,01,22.70
2021,07,30,08,02,22.80
2021,07,30,08,03,22.80
2021,07,30,08,04,22.90
2021,07,30,08,05,22.90
2021,07,30,08,06,22.90
2021,07,30,08,07,23.00
2021,07,30,08,08,23.10
2021,07,30,08,09,23.10
2021,07,30,08,10,23.10
2021,07,30,08,11,23.10
2021,07,30,08,12,23.10
2021,07,30,08,13,23.10
2021,07,30,08,14,23.20
2021,07,30,08,15,23.20
2021,07,30,08,16,23.20
2021,07,30,08,17,23.30
2021,07,30,08,18,23.30
2021,07,30,08,19,23.30
2021,07,30,08,20,23.30
2021,07,30,08,21,23.30
2021,07,30,08,22,23.40
2021,07,30,08,23,23.40
2021,07,30,08,24,23.40
2021,07,30,08,25,23.40
2021,07,30,08,26,23.40
2021,07,30,08,27,23.40
2021,07,30,08,28,23.50
2021,07,30,08,29,23.50
2021,07,30,08,30,23.60
2021,07,30,08,31,23.60
2021,07,30,08,32,23.70
2021,07,30,08,33,23.70
2021,07,30,08,34,23.70
2021,07,30,08,35,23.70
2021,07,30,08,36,23.70
2021,07,30,08,37,23.60
2021,07,30,08,38,23.60
2021,07,30,08,39,23.60
2021,07,30,08,40,23.60
2021,07,30,08,41,23.60
2021,07,30,08,42,23.70
2021,07,30,08,43,23.70
2021,07,30,08,44,23.70
2021,07,30,08,45,23.70
2021,07,30,08,46,23.70
2021,07,30,08,47,23.70
2021,07,30,08,48,23.60
2021,07,30,08,49,23.60
2021,07,30,08,50,23.60
2021,07,30,08,51,23.60
2021,07,30,08,52,23.70
2021,07,30,08,53,23.70
2021,07,30,08,54,23.70
2021,07,30,08,55,23.70
2021,07,30,08,56,23.70
2021,07,30,08,57,23.80
2021,07,30,08,58,23.80
2021,07,30,08,59,23.90
2021,07,30,09,00,23.90
2021,07,30,09,01,24.00
2021,07,30,09,02,24.10
2021,07,30,09,03,24.10
2021,07,30,09,04,24.10
2021,07,30,09,05,24.20
2021,07,30,09,06,24.20
2021,07,30,09,07,24.30
2021,07,30,09,08,24.30
2021,07,30,09,09,24.40
2021,07,30,09,10,24.40
2021,07,30,09,11,24.40
2021,07,30,09,12,24.50
2021,07,30,09,13,24.60
2021,07,30,09,14,24.60
2021,07,30,09,15,24.60
2021,07,30,09,16,24.60
2021,07,30,09,17,24.50
2021,07,30,09,18,24.50
2021,07,30,09,19,24.40
2021,07,30,09,20,24.30
2021,07,30,09,21,24.30
2021,07,30,09,22,24.30
2021,07,30,09,23,24.20
2021,07,30,09,24,24.30
2021,07,30,09,25,24.30
2021,07,30,09,26,24.30
2021,07,30,09,27,24.40
2021,07,30,09,28,24.50
2021,07,30,09,29,24.50
2021,07,30,09,30,24.40
2021,07,30,09,31,24.40
2021,07,30,09,32,24.40
2021,07,30,09,33,24.50
2021,07,30,09,34,24.60
2021,07,30,09,35,24.60
2021,07,30,09,36,24.60
2021,07,30,09,37,24.60
2021,07,30,09,38,24.70
2021,07,30,09,39,24.70
2021,07,30,09,40,24.80
2021,07,30,09,41,24.90
2021,07,30,09,42,25.00
2021,07,30,09,43,25.10
2021,07,30,09,44,25.10
2021,07,30,09,45,25.10
2021,07,30,09,46,25.10
2021,07,30,09,47,25.00
2021,07,30,09,48,24.90
2021,07,30,09,49,24.80
2021,07,30,09,50,24.80
2021,07,30,09,51,24.80
2021,07,30,09,52,24.80
2021,07,30,09,53,24.90
2021,07,30,09,54,24.90
2021,07,30,09,55,25.00
2021,07,30,09,56,25.10
2021,07,30,09,57,25.10
2021,07,30,09,58,25.10
2021,07,30,09,59,25.20
2021,07,30,10,00,25.20
2021,07,30,10,01,25.30
2021,07,30,10,02,25.40
2021,07,30,10,03,25.50
2021,07,30,10,04,25.60
2021,07,30,10,05,25.50
2021,07,30,10,06,25.40
2021,07,30,10,07,25.50
2021,07,30,10,08,25.50
2021,07,30,10,09,25.50
2021,07,30,10,10,25.50
2021,07,30,10,11,25.60
2021,07,30,10,12,25.60
2021,07,30,10,13,25.70
2021,07,30,10,14,25.80
2021,07,30,10,15,25.90
2021,07,30,10,16,25.90
2021,07,30,10,17,25.90
2021,07,30,10,18,25.80
2021,07,30,10,19,25.80
2021,07,30,10,20,25.70
2021,07,30,10,21,25.60
2021,07,30,10,22,25.40
2021,07,30,10,23,25.30
2021,07,30,10,24,25.30
2021,07,30,10,25,25.20
2021,07,30,10,26,25.20
2021,07,30,10,27,25.20
2021,07,30,10,28,25.20
2021,07,30,10,29,25.20
2021,07,30,10,30,25.10
2021,07,30,10,31,25.20
2021,07,30,10,32,25.30
2021,07,30,10,33,25.50
2021,07,30,10,34,25.70
2021,07,30,10,35,25.90
2021,07,30,10,36,26.00
2021,07,30,10,37,26.00
2021,07,30,10,38,25.90
2021,07,30,10,39,25.90
2021,07,30,10,40,25.80
2021,07,30,10,41,25.70
2021,07,30,10,42,25.50
2021,07,30,10,43,25.30
2021,07,30,10,44,25.20
2021,07,30,10,45,25.20
2021,07,30,10,46,25.20
2021,07,30,10,47,25.30
2021,07,30,10,48,25.30
2021,07,30,10,49,25.30
2021,07,30,10,50,25.30
2021,07,30,10,51,25.20
2021,07,30,10,52,25.20
2021,07,30,10,53,25.30
2021,07,30,10,54,25.40
2021,07,30,10,55,25.40
2021,07,30,10,56,25.40
2021,07,30,10,57,25.30
2021,07,30,10,58,25.30
2021,07,30,10,59,25.30
2021,07,30,11,00,25.30
2021,07,30,11,01,25.30
2021,07,30,11,02,25.30
2021,07,30,11,03,25.40
2021,07,30,11,04,25.40
2021,07,30,11,05,25.40
2021,07,30,11,06,25.40
2021,07,30,11,07,25.40
2021,07,30,11,08,25.40
2021,07,30,11,09,25.40
2021,07,30,11,10,25.50
2021,07,30,11,11,25.60
2021,07,30,11,12,25.60
2021,07,30,11,13,25.70
2021,07,30,11,14,25.70
2021,07,30,11,15,25.80
2021,07,30,11,16,25.90
2021,07,30,11,17,26.00
2021,07,30,11,18,26.10
2021,07,30,11,19,26.20
2021,07,30,11,20,26.20
2021,07,30,11,21,26.20
2021,07,30,11,22,26.10
2021,07,30,11,23,26.10
2021,07,30,11,24,26.20
2021,07,30,11,25,26.30
2021,07,30,11,26,26.40
2021,07,30,11,27,26.60
2021,07,30,11,28,26.70
2021,07,30,11,29,26.80
2021,07,30,11,30,26.80
2021,07,30,11,31,26.70
2021,07,30,11,32,26.70
2021,07,30,11,33,26.60
2021,07,30,11,34,26.60
2021,07,30,11,35,26.70
2021,07,30,11,36,26.80
2021,07,30,11,37,26.80
2021,07,30,11,38,26.80
2021,07,30,11,39,26.90
2021,07,30,11,40,26.90
2021,07,30,11,41,26.90
2021,07,30,11,42,27.00
2021,07,30,11,43,27.10
2021,07,30,11,44,27.20
2021,07,30,11,45,27.10
2021,07,30,11,46,26.90
2021,07,30,11,47,26.80
2021,07,30,11,48,26.70
2021,07,30,11,49,26.60
2021,07,30,11,50,26.60
2021,07,30,11,51,26.60
2021,07,30,11,52,26.60
2021,07,30,11,53,26.70
2021,07,30,11,54,26.80
2021,07,30,11,55,26.80
2021,07,30,11,56,26.70
2021,07,30,11,57,26.60
2021,07,30,11,58,26.60
2021,07,30,11,59,26.60
2021,07,30,12,00,26.50
2021,07,30,12,01,26.40
2021,07,30,12,02,26.40
2021,07,30,12,03,26.30
2021,07,30,12,04,26.40
2021,07,30,12,05,26.50
2021,07,30,12,06,26.60
2021,07,30,12,07,26.60
2021,07,30,12,08,26.70
2021,07,30,12,09,26.70
2021,07,30,12,10,26.70
2021,07,30,12,11,26.90
2021,07,30,12,12,27.00
2021,07,30,12,13,27.00
2021,07,30,12,14,26.90
2021,07,30,12,15,26.90
2021,07,30,12,16,27.00
2021,07,30,12,17,27.00
2021,07,30,12,18,27.00
2021,07,30,12,19,27.00
2021,07,30,12,20,27.10
2021,07,30,12,21,27.10
2021,07,30,12,22,27.10
2021,07,30,12,23,27.20
2021,07,30,12,24,27.20
2021,07,30,12,25,27.30
2021,07,30,12,26,27.40
2021,07,30,12,27,27.60
2021,07,30,12,28,27.70
2021,07,30,12,29,27.80
2021,07,30,12,30,27.80
2021,07,30,12,31,27.80
2021,07,30,12,32,27.80
2021,07,30,12,33,27.90
2021,07,30,12,34,27.90
2021,07,30,12,35,28.00
2021,07,30,12,36,28.00
2021,07,30,12,37,27.90
2021,07,30,12,38,27.80
2021,07,30,12,39,27.80
2021,07,30,12,40,27.80
2021,07,30,12,41,27.70
2021,07,30,12,42,27.80
2021,07,30,12,43,27.80
2021,07,30,12,44,27.80
2021,07,30,12,45,27.80
2021,07,30,12,46,27.70
2021,07,30,12,47,27.70
2021,07,30,12,48,27.60
2021,07,30,12,49,27.60
2021,07,30,12,50,27.70
2021,07,30,12,51,27.70
2021,07,30,12,52,27.70
2021,07,30,12,53,27.70
2021,07,30,12,54,27.90
2021,07,30,12,55,27.90
2021,07,30,12,56,28.00
2021,07,30,12,57,28.10
2021,07,30,12,58,28.00
2021,07,30,12,59,27.90
2021,07,30,13,00,28.00
2021,07,30,13,01,28.00
2021,07,30,13,02,28.00
2021,07,30,13,03,27.90
2021,07,30,13,04,28.00
2021,07,30,13,05,28.00
2021,07,30,13,06,28.00
2021,07,30,13,07,28.00
2021,07,30,13,08,28.10
2021,07,30,13,09,28.10
2021,07,30,13,10,28.20
2021,07,30,13,11,28.30
2021,07,30,13,12,28.40
2021,07,30,13,13,28.40
2021,07,30,13,14,28.50
2021,07,30,13,15,28.50
2021,07,30,13,16,28.50
2021,07,30,13,17,28.50
2021,07,30,13,18,28.40
2021,07,30,13,19,28.50
2021,07,30,13,20,28.40
2021,07,30,13,21,28.30
2021,07,30,13,22,28.40
2021,07,30,13,23,28.40
2021,07,30,13,24,28.40
2021,07,30,13,25,28.40
2021,07,30,13,26,28.30
2021,07,30,13,27,28.30
2021,07,30,13,28,28.30
2021,07,30,13,29,28.40
2021,07,30,13,30,28.50
2021,07,30,13,31,28.60
2021,07,30,13,32,28.70
2021,07,30,13,33,28.80
2021,07,30,13,34,28.80
2021,07,30,13,35,28.80
2021,07,30,13,36,28.80
2021,07,30,13,37,28.80
2021,07,30,13,38,28.80
2021,07,30,13,39,28.70
2021,07,30,13,40,28.70
2021,07,30,13,41,28.60
2021,07,30,13,42,28.40
2021,07,30,13,43,28.40
2021,07,30,13,44,28.40
2021,07,30,13,45,28.30
2021,07,30,13,46,28.30
2021,07,30,13,47,28.30
2021,07,30,13,48,28.40
2021,07,30,13,49,28.40
2021,07,30,13,50,28.30
2021,07,30,13,51,28.40
2021,07,30,13,52,28.50
2021,07,30,13,53,28.60
2021,07,30,13,54,28.70
2021,07,30,13,55,28.80
2021,07,30,13,56,28.80
2021,07,30,13,57,29.00
2021,07,30,13,58,29.10
2021,07,30,13,59,29.10
2021,07,30,14,00,29.10
2021,07,30,14,01,29.20
2021,07,30,14,02,29.30
2021,07,30,14,03,29.50
2021,07,30,14,04,29.60
2021,07,30,14,05,29.70
2021,07,30,14,06,29.70
2021,07,30,14,07,29.70
2021,07,30,14,08,29.80
2021,07,30,14,09,29.80
2021,07,30,14,10,29.80
2021,07,30,14,11,29.80
2021,07,30,14,12,29.80
2021,07,30,14,13,29.90
2021,07,30,14,14,29.80
2021,07,30,14,15,29.70
2021,07,30,14,16,29.50
2021,07,30,14,17,29.30
2021,07,30,14,18,29.30
2021,07,30,14,19,29.40
2021,07,30,14,20,29.40
2021,07,30,14,21,29.50
2021,07,30,14,22,29.60
2021,07,30,14,23,29.70
2021,07,30,14,24,29.90
2021,07,30,14,25,30.00
2021,07,30,14,26,29.90
2021,07,30,14,27,29.90
2021,07,30,14,28,29.80
2021,07,30,14,29,29.90
2021,07,30,14,30,30.00
2021,07,30,14,31,30.10
2021,07,30,14,32,30.30
2021,07,30,14,33,30.30
2021,07,30,14,34,30.20
2021,07,30,14,35,30.20
2021,07,30,14,36,30.20
2021,07,30,14,37,30.00
2021,07,30,14,38,29.90
2021,07,30,14,39,30.00
2021,07,30,14,40,30.00
2021,07,30,14,41,30.10
2021,07,30,14,42,30.10
2021,07,30,14,43,30.10
2021,07,30,14,44,30.20
2021,07,30,14,45,30.20
2021,07,30,14,46,30.20
2021,07,30,14,47,30.20
2021,07,30,14,48,30.30
2021,07,30,14,49,30.40
2021,07,30,14,50,30.30
2021,07,30,14,51,30.30
2021,07,30,14,52,30.20
2021,07,30,14,53,30.20
2021,07,30,14,54,30.30
2021,07,30,14,55,30.40
2021,07,30,14,56,30.40
2021,07,30,14,57,30.40
2021,07,30,14,58,30.40
2021,07,30,14,59,30.40
2021,07,30,15,00,30.40
2021,07,30,15,01,30.40
2021,07,30,15,02,30.50
2021,07,30,15,03,30.60
2021,07,30,15,04,30.70
2021,07,30,15,05,30.70
2021,07,30,15,06,30.70
2021,07,30,15,07,30.70
2021,07,30,15,08,30.70
2021,07,30,15,09,30.50
2021,07,30,15,10,30.40
2021,07,30,15,11,30.40
2021,07,30,15,12,30.40
2021,07,30,15,13,30.40
2021,07,30,15,14,30.30
2021,07,30,15,15,30.30
2021,07,30,15,16,30.40
2021,07,30,15,17,30.40
2021,07,30,15,18,30.50
2021,07,30,15,19,30.50
2021,07,30,15,20,30.50
2021,07,30,15,21,30.60
2021,07,30,15,22,30.60
2021,07,30,15,23,30.70
2021,07,30,15,24,30.80
2021,07,30,15,25,31.00
2021,07,30,15,26,31.10
2021,07,30,15,27,31.30
2021,07,30,15,28,31.30
2021,07,30,15,29,31.30
2021,07,30,15,30,31.30
2021,07,30,15,31,31.20
2021,07,30,15,32,31.20
2021,07,30,15,33,31.20
2021,07,30,15,34,31.30
2021,07,30,15,35,31.30
2021,07,30,15,36,31.40
2021,07,30,15,37,31.40
2021,07,30,15,38,31.50
2021,07,30,15,39,31.60
2021,07,30,15,40,31.60
2021,07,30,15,41,31.50
2021,07,30,15,42,31.50
2021,07,30,15,43,31.60
2021,07,30,15,44,31.60
2021,07,30,15,45,31.60
2021,07,30,15,46,31.60
2021,07,30,15,47,31.60
2021,07,30,15,48,31.60
2021,07,30,15,49,31.50
2021,07,30,15,50,31.40
2021,07,30,15,51,31.40
2021,07,30,15,52,31.40
2021,07,30,15,53,31.30
2021,07,30,15,54,31.20
2021,07,30,15,55,31.20
2021,07,30,15,56,31.20
2021,07,30,15,57,31.30
2021,07,30,15,58,31.30
2021,07,30,15,59,31.40
2021,07,30,16,00,31.40
2021,07,30,16,01,31.50
2021,07,30,16,02,31.60
2021,07,30,16,03,31.60
2021,07,30,16,04,31.60
2021,07,30,16,05,31.70
2021,07,30,16,06,31.70
2021,07,30,16,07,31.70
2021,07,30,16,08,31.80
2021,07,30,16,09,31.80
2021,07,30,16,10,31.90
2021,07,30,16,11,31.90
2021,07,30,16,12,32.00
2021,07,30,16,13,32.00
2021,07,30,16,14,32.10
2021,07,30,16,15,32.20
2021,07,30,16,16,32.20
2021,07,30,16,17,32.20
2021,07,30,16,18,32.10
2021,07,30,16,19,32.20
2021,07,30,16,20,32.30
2021,07,30,16,21,32.40
2021,07,30,16,22,32.50
2021,07,30,16,23,32.60
2021,07,30,16,24,32.50
2021,07,30,16,25,32.40
2021,07,30,16,26,32.30
2021,07,30,16,27,32.20
2021,07,30,16,28,32.10
2021,07,30,16,29,32.10
2021,07,30,16,30,32.10
2021,07,30,16,31,32.10
2021,07,30,16,32,32.10
2021,07,30,16,33,32.20
2021,07,30,16,34,32.20
2021,07,30,16,35,32.20
2021,07,30,16,36,32.30
2021,07,30,16,37,32.30
2021,07,30,16,38,32.30
2021,07,30,16,39,32.40
2021,07,30,16,40,32.40
2021,07,30,16,41,32.40
2021,07,30,16,42,32.50
2021,07,30,16,43,32.60
2021,07,30,16,44,32.70
2021,07,30,16,45,32.80
2021,07,30,16,46,32.80
2021,07,30,16,47,32.90
2021,07,30,16,48,33.00
2021,07,30,16,49,33.00
2021,07,30,16,50,33.10
2021,07,30,16,51,33.20
2021,07,30,16,52,33.20
2021,07,30,16,53,33.10
2021,07,30,16,54,33.10
2021,07,30,16,55,33.20
2021,07,30,16,56,33.20
2021,07,30,16,57,33.30
2021,07,30,16,58,33.40
2021,07,30,16,59,33.50
2021,07,30,17,00,33.50
2021,07,30,17,01,33.60
2021,07,30,17,02,33.60
2021,07,30,17,03,33.60
2021,07,30,17,04,33.50
2021,07,30,17,05,33.50
2021,07,30,17,06,33.40
2021,07,30,17,07,33.40
2021,07,30,17,08,33.50
2021,07,30,17,09,33.60
2021,07,30,17,10,33.70
2021,07,30,17,11,33.70
2021,07,30,17,12,33.80
2021,07,30,17,13,33.80
2021,07,30,17,14,33.70
2021,07,30,17,15,33.60
2021,07,30,17,16,33.50
2021,07,30,17,17,33.40
2021,07,30,17,18,33.40
2021,07,30,17,19,33.40
2021,07,30,17,20,33.40
2021,07,30,17,21,33.50
2021,07,30,17,22,33.50
2021,07,30,17,23,33.60
2021,07,30,17,24,33.60
2021,07,30,17,25,33.70
2021,07,30,17,26,33.60
2021,07,30,17,27,33.60
2021,07,30,17,28,33.60
2021,07,30,17,29,33.60
2021,07,30,17,30,33.60
2021,07,30,17,31,33.50
2021,07,30,17,32,33.50
2021,07,30,17,33,33.50
2021,07,30,17,34,33.60
2021,07,30,17,35,33.70
2021,07,30,17,36,33.80
2021,07,30,17,37,33.80
2021,07,30,17,38,33.70
2021,07,30,17,39,33.70
2021,07,30,17,40,33.70
2021,07,30,17,41,33.70
2021,07,30,17,42,33.70
2021,07,30,17,43,33.70
2021,07,30,17,44,33.80
2021,07,30,17,45,33.70
2021,07,30,17,46,33.80
2021,07,30,17,47,33.80
2021,07,30,17,48,33.80
2021,07,30,17,49,33.80
2021,07,30,17,50,33.90
2021,07,30,17,51,33.80
2021,07,30,17,52,33.70
2021,07,30,17,53,33.60
2021,07,30,17,54,33.60
2021,07,30,17,55,33.60
2021,07,30,17,56,33.50
2021,07,30,17,57,33.50
2021,07,30,17,58,33.40
2021,07,30,17,59,33.40
2021,07,30,18,00,33.30
2021,07,30,18,01,33.30
2021,07,30,18,02,33.30
2021,07,30,18,03,33.20
2021,07,30,18,04,33.20
2021,07,30,18,05,33.20
2021,07,30,18,06,33.10
2021,07,30,18,07,33.10
2021,07,30,18,08,33.10
2021,07,30,18,09,33.10
2021,07,30,18,10,33.10
2021,07,30,18,11,33.20
2021,07,30,18,12,33.20
2021,07,30,18,13,33.20
2021,07,30,18,14,33.30
2021,07,30,18,15,33.40
2021,07,30,18,16,33.50
2021,07,30,18,17,33.50
2021,07,30,18,18,33.40
2021,07,30,18,19,33.40
2021,07,30,18,20,33.40
2021,07,30,18,21,33.50
2021,07,30,18,22,33.50
2021,07,30,18,23,33.50
2021,07,30,18,24,33.60
2021,07,30,18,25,33.60
2021,07,30,18,26,33.70
2021,07,30,18,27,33.70
2021,07,30,18,28,33.80
2021,07,30,18,29,33.70
2021,07,30,18,30,33.60
2021,07,30,18,31,33.50
2021,07,30,18,32,33.50
2021,07,30,18,33,33.50
2021,07,30,18,34,33.60
2021,07,30,18,35,33.60
2021,07,30,18,36,33.70
2021,07,30,18,37,33.70
2021,07,30,18,38,33.70
2021,07,30,18,39,33.60
2021,07,30,18,40,33.40
2021,07,30,18,41,33.00
2021,07,30,18,42,32.70
2021,07,30,18,43,32.50
2021,07,30,18,44,32.10
2021,07,30,18,45,31.80
2021,07,30,18,46,31.40
2021,07,30,18,47,31.10
2021,07,30,18,48,30.80
2021,07,30,18,49,30.60
2021,07,30,18,50,30.30
2021,07,30,18,51,30.10
2021,07,30,18,52,30.00
2021,07,30,18,53,29.90
2021,07,30,18,54,29.80
2021,07,30,18,55,29.70
2021,07,30,18,56,29.70
2021,07,30,18,57,29.70
2021,07,30,18,58,29.80
2021,07,30,18,59,29.80
2021,07,30,19,00,29.90
2021,07,30,19,01,30.00
2021,07,30,19,02,30.00
2021,07,30,19,03,30.10
2021,07,30,19,04,30.20
2021,07,30,19,05,30.30
2021,07,30,19,06,30.30
2021,07,30,19,07,30.40
2021,07,30,19,08,30.50
2021,07,30,19,09,30.60
2021,07,30,19,10,30.70
2021,07,30,19,11,30.80
2021,07,30,19,12,30.90
2021,07,30,19,13,31.10
2021,07,30,19,14,31.20
2021,07,30,19,15,31.30
2021,07,30,19,16,31.50
2021,07,30,19,17,31.60
2021,07,30,19,18,31.70
2021,07,30,19,19,31.90
2021,07,30,19,20,32.00
2021,07,30,19,21,32.10
2021,07,30,19,22,32.20
2021,07,30,19,23,32.30
2021,07,30,19,24,32.40
2021,07,30,19,25,32.40
2021,07,30,19,26,32.50
2021,07,30,19,27,32.50
2021,07,30,19,28,32.50
2021,07,30,19,29,32.60
2021,07,30,19,30,32.60
2021,07,30,19,31,32.60
2021,07,30,19,32,32.60
2021,07,30,19,33,32.60
2021,07,30,19,34,32.60
2021,07,30,19,35,32.60
2021,07,30,19,36,32.50
2021,07,30,19,37,32.60
2021,07,30,19,38,32.60
2021,07,30,19,39,32.60
2021,07,30,19,40,32.60
2021,07,30,19,41,32.60
2021,07,30,19,42,32.60
2021,07,30,19,43,32.60
2021,07,30,19,44,32.60
2021,07,30,19,45,32.60
2021,07,30,19,46,32.60
2021,07,30,19,47,32.60
2021,07,30,19,48,32.70
2021,07,30,19,49,32.70
2021,07,30,19,50,32.70
2021,07,30,19,51,32.60
2021,07,30,19,52,32.60
2021,07,30,19,53,32.60
2021,07,30,19,54,32.60
2021,07,30,19,55,32.60
2021,07,30,19,56,32.60
2021,07,30,19,57,32.60
2021,07,30,19,58,32.60
2021,07,30,19,59,32.60
2021,07,30,20,00,32.60
2021,07,30,20,01,32.60
2021,07,30,20,02,32.60
2021,07,30,20,03,32.50
2021,07,30,20,04,32.50
2021,07,30,20,05,32.40
2021,07,30,20,06,32.40
2021,07,30,20,07,32.40
2021,07,30,20,08,32.30
2021,07,30,20,09,32.30
2021,07,30,20,10,32.30
2021,07,30,20,11,32.20
2021,07,30,20,12,32.20
2021,07,30,20,13,32.10
2021,07,30,20,14,32.10
2021,07,30,20,15,32.00
2021,07,30,20,16,32.00
2021,07,30,20,17,31.90
2021,07,30,20,18,31.80
2021,07,30,20,19,31.70
2021,07,30,20,20,31.60
2021,07,30,20,21,31.50
2021,07,30,20,22,31.40
2021,07,30,20,23,31.30
2021,07,30,20,24,31.10
2021,07,30,20,25,31.00
2021,07,30,20,26,30.80
2021,07,30,20,27,30.70
2021,07,30,20,28,30.60
2021,07,30,20,29,30.50
2021,07,30,20,30,30.40
2021,07,30,20,31,30.30
2021,07,30,20,32,30.20
2021,07,30,20,33,30.20
2021,07,30,20,34,30.10
2021,07,30,20,35,30.10
2021,07,30,20,36,30.10
2021,07,30,20,37,30.10
2021,07,30,20,38,30.10
2021,07,30,20,39,30.20
2021,07,30,20,40,30.20
2021,07,30,20,41,30.20
2021,07,30,20,42,30.20
2021,07,30,20,43,30.10
2021,07,30,20,44,30.00
2021,07,30,20,45,29.90
2021,07,30,20,46,29.40
2021,07,30,20,47,29.40
2021,07,30,20,48,29.70
2021,07,30,20,49,29.70
2021,07,30,20,50,29.70
2021,07,30,20,51,29.70
2021,07,30,20,52,29.70
2021,07,30,20,53,29.70
2021,07,30,20,54,29.70
2021,07,30,20,55,29.70
2021,07,30,20,56,29.70
2021,07,30,20,57,29.70
2021,07,30,20,58,29.70
